Showing default

PERSEUS M1, 40039

Orbit data source: Space-Track

PERSEUS M1, 40039 is a payload satellite owned by Canopus Sys (CIS) in SSO that was launched on Thu, 19 Jun 2014 UTC via a DNEPR launch vehicle from the Orenburg, Russia (OREN). Payload-class satellites include a variety of spacecraft equipped with specific instruments for various scientific and technological missions. These include communications satellites like Starlink; space stations such as the ISS; scientific satellites like the Hubble; Earth observation satellites from companies like Planet Labs, Umbra, and HawkEye 360; GPS; miniature CubeSats for education and research; and military/defense satellites.

Loading next visibility...
Identifier
40039, 2014-033AF
Orbit
SSO
Country
Flag of CISCIS
Related business
None
Manufacturer
Canopus Sys
Mission
Operational Commercial Communications
Bus & Motor
CUBESAT 6U, Unknown motor
Mass
~10 kg wet, ~10 kg dry
Launch date (UTC)
2014-06-19 (11 years ago)
Launch vehicle
DNEPR
Launch site
Orenburg, Russia (OREN)
Object type
Payload
Rocket body
Debris
Shape & HBR
Box, 0.1 m
Radar Cross Section
0.105 m², Medium (>0.1 m² and < 1m²)

Expand to show TLE details & history
Last TLE update: 14 hours ago

TLE from 14 hours ago
0 PERSEUS M1
1 40039U 14033AF  25286.80914695  .00003119  00000-0  29540-3 0  9999
2 40039  97.9358 222.5196 0012985  40.2783 319.9396 14.94315325613822
Epoch: 2025-10-13T19:25Z
TLE epoch observation values (Epoch: 2025-10-13T19:25:10.296Z)
Latitude
-0.00004°
Longitude
-91.3799°
Altitude
580.622 km
Speed
7.574 km/s
True Right ascension
14h 50m 04s
True Declination
0° 00' 00"
Sunlit
Object was in daylight at epoch
Visualization orbit readout
Latitude
Unknown
Longitude
Unknown
Altitude
Unknown
Speed
Unknown
Apparent Right ascension
Unknown
Apparent Declination
Unknown
Sunlit
N/A
Visualization observer readout
Local Sidereal Time
04:18:12
Azimuth
Unknown
Elevation
Unknown
Doppler factor
Unknown
Orbital elements
Apogee altitude
590.559 km
Perigee altitude
572.485 km
Semi-major axis
6,959.659 km
Eccentricity
0.0013
Inclination
97.9358°
RAAN
222.5196°
Arg. of periapsis
40.2783°
True anomaly
319.84372°
Mean anomaly
319.9396°
Eccentric anomaly
319.89167°
Mean motion
3.73819 °/min
Orbital period
96.3 mins
BSTAR
0.0002954
Loading maneuver chart data...
Computing Atmospheric mass density...
Loading historical data...
Loading historical data...
Loading historical data...
Loading historical data...
Loading historical data...
Loading historical data...
Loading historical data...

Documentation

Showing up to 5 results
|